Location: Unspecified
(0.0000°N, 0.0000°E)
Time: 22:30:09
(UTC+00:00)

Courier 1B Rocket - Pass Details

Date: 08 October 2020
Orbit: 921 x 1202 km, 28.2° (Epoch: 27 October)

Event Time Altitude Azimuth Distance (km) Brightness Sun altitude
Rises 09:16:38 0° 315° (NW) 3,557 7.6 51.9°
Reaches altitude 10° 09:19:28 10° 324° (NW) 2,603 7.1 52.6°
Maximum altitude 09:25:07 36° 29° (NNE) 1,410 6.6 54.0°
Drops below altitude 10° 09:30:50 10° 94° (E) 2,637 8.0 55.4°
Sets 09:33:42 0° 103° (ESE) 3,609 8.5 56.1°
